Location: Altenhof
(50.2418°N, 10.8789°E)
Time: 09:30:05
(UTC+00:00)

Cosmos 1943 Rocket - Pass Details

Date: 18 February 2020
Orbit: 813 x 842 km, 71.0° (Epoch: 09 April)

Event Time Altitude Azimuth Distance (km) Brightness Sun altitude
Exits shadow 02:31:45 25° 22° (NNE) 1,597 4.0 -36.7°
Maximum altitude 02:32:58 27° 44° (NE) 1,519 3.9 -36.6°
Drops below altitude 10° 02:37:36 10° 101° (ESE) 2,404 5.1 -35.9°
Sets 02:40:23 0° 114° (ESE) 3,333 5.8 -35.5°
